User: anonymous   Login
Location: CNYAC Observatory
(43.2150°N, 74.9500°W)
Time: 12:54:12
(UTC-04:00)
Language:

Cosmos 1300 Rocket - Orbit

View from above orbital plane
View from above orbital plane
View from above satellite
View from above satellite

Ground track
Ground track

The orbit data is extracted from the following two-line orbital elements,

1 12786U 81082B   16212.31213280  .00000084  00000-0  71133-5 0  9997
2 12786  82.4884 271.0532 0016308 234.4413 125.5283 14.84629128887058
Epoch (UTC): 30 July 2016 07:29:28
Eccentricity: 0.0016308
inclination: 82.4884°
perigee height: 603 km
apogee height: 626 km
right ascension of ascending node: 271.0532°
argument of perigee: 234.4413°
revolutions per day: 14.84629128
mean anomaly at epoch: 125.5283°
orbit number at epoch: 88705

The dashed part of the orbit path shows where the satellite is in the earth's shadow,  

DLR